sat.trackr.live / text

‹ back to catalog

KUIPER-00111

NORAD 65149 · 2025-171T

PAYLOAD ACTIVE UNKNOWN

§ Identity

Operator
Country
US
Launch date
2025-08-11
Launch site
AFETR
Launch vehicle
Mass (kg)
RCS (m²)

External: N2YO · Heavens-Above · Gunter

§ Orbital elements

Epoch: 2026-09-21T11:56:45.635424Z

Period
97.30 min
Inclination
51.8975°
Eccentricity
0.0000444
Mean motion
14.79935895 rev/d
Perigee alt
629.2 km
Apogee alt
629.8 km
Semi-major
7,007.7 km
B*
3.4020e-4
RAAN
27.1288°
Arg perigee
121.9180°
Mean anomaly
238.1826°
Rev number
6,167

§ Raw data

KUIPER-001111 65149U 25171T   26264.49775041  .00002373  00000+0  34020-3 0  99942 65149  51.8975  27.1288 0000444 121.9180 238.1826 14.79935895 61674

JSON: /api/v1/satellites/65149 · /tle

For live sub-satellite position, see the globe view (requires WebGL).

§ Visibility from observer

Set your observer location to see the next 7 days of passes ≥ 10°. The values pass through the URL so the page stays shareable.

No JS? Fill the form by hand. The geolocation button needs JavaScript.